Вернуться в каталог

CZ-3A DEB

LostGTO
NORAD 40155·DEBRIS·🇨🇳 China

Запущен Feb 2, 2007 с Xichang Satellite Launch Center

Loading…

TLE

УстаревшееSource: Space-Track

Эпоха: Jul 31, 2024, 04:49 UTC

1 40155U 07003AP  24213.20116834  .00007992  00000-0  61279-1 0  9995
2 40155  23.5228 252.1880 7376686 243.3286  26.2209  2.04698072 23190

Отслеживайте CZ-3A DEB в реальном времени с AllMySat

Download on the App Store